Powrót do katalogu

QIANFAN-34

AktywnyŁącznośćPO
NORAD 61567·PAYLOAD·🇨🇳 China

Wystrzelony Oct 15, 2024 z Taiyuan Satellite Launch Center

Loading…

Następne Przeloty (najbliższe 24 godziny)

TLE

ŚwieżeSource: Space-Track

Epoka: Sep 14, 2026, 22:06 UTC

1 61567U 24185R   26257.92094588  .00000453  00000-0  28527-3 0  9991
2 61567  88.9804  47.2176 0006193 159.2793 200.8640 14.02517812108062

Śledź QIANFAN-34 w czasie rzeczywistym z AllMySat

Download on the App Store